This is the latest recevied weather packets stored in our database for station/object DC0VZ-6. If no packets are shown the sender has not sent any weather packets the latest 10 day(s).
| Time | Temp. | Humidity | Pressure | Rain* | Wind** | Luminosity | Snow |
|---|---|---|---|---|---|---|---|
| 1777835773 | 15.56° C | 12% | 982.6 hPa | 0 mm | - | - | - |
| 1777835173 | 16.11° C | 12% | 982.6 hPa | 0 mm | - | - | - |
| 1777834573 | 16.11° C | 12% | 982.7 hPa | 0 mm | - | - | - |
| 1777833973 | 16.67° C | 12% | 982.7 hPa | 0 mm | - | - | - |
| 1777833373 | 17.22° C | 12% | 982.6 hPa | 0 mm | - | - | - |
| 1777832773 | 17.22° C | 12% | 982.6 hPa | 0 mm | - | - | - |
| 1777832173 | 17.78° C | 12% | 982.4 hPa | 0 mm | - | - | - |
| 1777831573 | 17.78° C | 12% | 982.4 hPa | 0 mm | - | - | - |
| 1777830972 | 17.78° C | 12% | 982.8 hPa | 0 mm | - | - | - |
| 1777830373 | 17.78° C | 12% | 982.8 hPa | 0 mm | - | - | - |
| 1777829772 | 17.78° C | 12% | 982.8 hPa | 0 mm | - | - | - |
| 1777829172 | 17.78° C | 12% | 982.8 hPa | 0 mm | - | - | - |
| 1777828572 | 17.78° C | 12% | 982.8 hPa | 0 mm | - | - | - |
| 1777827972 | 17.78° C | 12% | 982.8 hPa | 0 mm | - | - | - |
| 1777827372 | 18.33° C | 12% | 982.8 hPa | 0 mm | - | - | - |
| 1777826772 | 18.89° C | 11% | 982.8 hPa | 0 mm | - | - | - |
| 1777826172 | 19.44° C | 11% | 982.7 hPa | 0 mm | - | - | - |
| 1777825572 | 19.44° C | 11% | 982.7 hPa | 0 mm | - | - | - |
| 1777824971 | 20° C | 11% | 983.1 hPa | 0 mm | - | - | - |
| 1777824372 | 20.56° C | 11% | 983.1 hPa | 0 mm | - | - | - |
| 1777823771 | 20.56° C | 11% | 983.4 hPa | 0 mm | - | - | - |
| 1777823171 | 21.11° C | 5% | 983.4 hPa | 0 mm | - | - | - |
| 1777822571 | 21.67° C | 5% | 983.1 hPa | 0 mm | - | - | - |
| 1777821971 | 21.67° C | 5% | 983.1 hPa | 0 mm | - | - | - |
| 1777821371 | 22.22° C | 5% | 983 hPa | 0 mm | - | - | - |
* Rain latest hour (hover to see other rain measurements)
** Current wind speed in m/s (hover to see current wind gust speed)